ARIANE 3 R/B, 16657

Orbit data source: Space-Track

ARIANE 3 R/B, 16657 is space debris in HEO originally from a launch on Fri, 28 Mar 1986 UTC launched from the French Guiana (FRGUI). Debris objects in space refer to the collection of defunct objects orbiting the Earth. Examples of debris include non-operational satellites, rocket bodies, and fragments generated from explosions, collisions, or faulty payload assembly.

Loading next visibility...
Identifier
16657, 1986-026C
Orbit
HEO
Country
Flag of FRFR
Related business
Manufacturer
Ae/LesM
Mission
Spacecraft
Bus & Motor
ARIANE H10, HM-7B
Mass
1,920 kg wet, 1,920 kg dry
Launch date (UTC)
1986-03-28 (40 years ago)
Launch vehicle
Unknown
Launch site
French Guiana (FRGUI)
Object type
Payload
Rocket body
Debris
Shape & HBR
Unknown
Radar Cross Section
Large (>1 m²)

Expand to show TLE details & history
Last TLE update: 1 day ago

TLE from 1 day ago
0 ARIANE 3 R/B
1 16657U 86026C   26137.84595573 -.00000007  00000-0  29367-3 0  9990
2 16657   6.9116  67.2502 7233749 203.3516  91.1759  2.25775581279278
Epoch: 2026-05-17T20:18Z
TLE epoch observation values (Epoch: 2026-05-17T20:18:10.575Z)
Latitude
-0.00008°
Longitude
-112.99555°
Altitude
28,413.625 km
Speed
2.583 km/s
True Right ascension
04h 28m 21s
True Declination
0° 00' 00"
Sunlit
Object was in daylight at epoch
Visualization orbit readout
Latitude
Unknown
Longitude
Unknown
Altitude
Unknown
Speed
Unknown
Apparent Right ascension
Unknown
Apparent Declination
Unknown
Sunlit
N/A
Visualization observer readout
Local Sidereal Time
10:15:22
Azimuth
Unknown
Elevation
Unknown
Doppler factor
Unknown
Orbital elements
Apogee altitude
35,930.1 km
Perigee altitude
412.91 km
Semi-major axis
24,549.642 km
Eccentricity
0.72337
Inclination
6.9116°
RAAN
67.2502°
Arg. of periapsis
203.3516°
True anomaly
156.48213°
Mean anomaly
91.1759°
Eccentric anomaly
125.08955°
Mean motion
0.56426 °/min
Orbital period
638.01 mins
BSTAR
0.00029367
Loading maneuver chart data...
Computing Atmospheric mass density...
Loading historical data...
Loading historical data...
Loading historical data...
Loading historical data...
Loading historical data...
Loading historical data...
Loading historical data...

Documentation

Showing up to 5 results
|